TimeEDT,TemperatureF,Dew PointF,Humidity,Sea Level PressureIn,VisibilityMPH,Wind Direction,Wind SpeedMPH,Gust SpeedMPH,PrecipitationIn,Events,Conditions,WindDirDegrees,DateUTC
12:53 AM,64.0,62.1,93,30.20,4.0,Calm,Calm,-,N/A,,Overcast,0,2013-08-19 04:53:00
1:53 AM,64.0,63.0,96,30.18,5.0,Calm,Calm,-,N/A,,Overcast,0,2013-08-19 05:53:00
2:19 AM,62.6,62.6,100,30.18,5.0,Calm,Calm,-,N/A,,Overcast,0,2013-08-19 06:19:00
2:53 AM,63.0,62.1,97,30.16,4.0,Calm,Calm,-,N/A,,Overcast,0,2013-08-19 06:53:00
3:15 AM,64.4,62.6,94,30.18,4.0,Calm,Calm,-,N/A,,Overcast,0,2013-08-19 07:15:00
3:45 AM,62.6,62.6,100,30.17,1.8,Calm,Calm,-,N/A,,Overcast,0,2013-08-19 07:45:00
3:53 AM,63.0,62.1,97,30.16,0.8,South,3.5,-,N/A,,Overcast,190,2013-08-19 07:53:00
4:53 AM,62.1,62.1,100,30.14,0.2,Calm,Calm,-,N/A,Fog,Fog,0,2013-08-19 08:53:00
5:04 AM,62.6,62.6,100,30.16,2.0,Calm,Calm,-,N/A,,Overcast,0,2013-08-19 09:04:00
5:12 AM,62.6,62.6,100,30.16,4.0,Calm,Calm,-,N/A,,Overcast,0,2013-08-19 09:12:00
5:53 AM,63.0,62.1,97,30.15,5.0,SSW,3.5,-,N/A,,Overcast,200,2013-08-19 09:53:00
6:53 AM,63.0,62.1,97,30.16,5.0,SSW,3.5,-,0.00,Rain,Light Rain,200,2013-08-19 10:53:00
7:11 AM,62.6,62.6,100,30.17,4.0,SSW,4.6,-,0.01,Rain,Light Rain,210,2013-08-19 11:11:00
7:53 AM,63.0,62.1,97,30.16,3.0,South,5.8,-,0.02,Rain,Light Rain,170,2013-08-19 11:53:00
7:57 AM,62.6,62.6,100,30.17,2.5,South,5.8,-,0.00,Rain,Light Rain,180,2013-08-19 11:57:00
8:07 AM,62.6,62.6,100,30.17,2.0,South,4.6,-,0.00,Rain,Light Rain,180,2013-08-19 12:07:00
8:26 AM,62.6,62.6,100,30.16,1.8,SSE,5.8,-,0.01,Rain,Light Rain,160,2013-08-19 12:26:00
8:37 AM,62.6,62.6,100,30.16,2.5,South,4.6,-,0.01,Rain,Light Rain,190,2013-08-19 12:37:00
8:45 AM,62.6,62.6,100,30.17,4.0,Calm,Calm,-,0.01,,Overcast,0,2013-08-19 12:45:00
8:53 AM,63.0,63.0,100,30.15,5.0,South,4.6,-,0.01,,Overcast,190,2013-08-19 12:53:00
9:53 AM,64.0,63.0,96,30.14,7.0,South,3.5,-,N/A,,Overcast,190,2013-08-19 13:53:00
10:06 AM,64.4,62.6,94,30.15,2.0,South,4.6,-,N/A,,Overcast,170,2013-08-19 14:06:00
10:53 AM,66.0,64.0,93,30.14,5.0,SSW,4.6,-,N/A,,Overcast,200,2013-08-19 14:53:00
11:34 AM,66.2,64.4,94,30.16,5.0,SSW,8.1,-,N/A,,Overcast,200,2013-08-19 15:34:00
11:53 AM,66.9,64.0,90,30.15,10.0,South,4.6,-,N/A,,Overcast,190,2013-08-19 15:53:00
12:53 PM,70.0,64.9,84,30.14,10.0,South,6.9,-,N/A,,Overcast,190,2013-08-19 16:53:00
1:02 PM,69.8,64.4,83,30.14,10.0,South,6.9,-,N/A,,Overcast,180,2013-08-19 17:02:00
1:53 PM,71.1,66.0,84,30.13,10.0,SSW,6.9,-,N/A,,Overcast,210,2013-08-19 17:53:00
2:53 PM,72.0,66.0,81,30.12,10.0,South,3.5,-,N/A,,Overcast,190,2013-08-19 18:53:00
3:53 PM,72.0,66.9,84,30.10,10.0,SSE,6.9,-,N/A,,Overcast,160,2013-08-19 19:53:00
4:21 PM,71.6,66.2,83,30.10,10.0,South,5.8,-,N/A,,Overcast,190,2013-08-19 20:21:00
4:53 PM,73.9,66.9,79,30.09,10.0,SSE,4.6,-,N/A,,Overcast,150,2013-08-19 20:53:00
5:53 PM,73.0,66.9,81,30.08,10.0,SE,5.8,-,N/A,,Overcast,140,2013-08-19 21:53:00
6:53 PM,72.0,66.9,84,30.09,10.0,South,4.6,-,N/A,,Overcast,180,2013-08-19 22:53:00
7:53 PM,71.1,66.9,87,30.09,10.0,SSE,4.6,-,N/A,,Overcast,160,2013-08-19 23:53:00
8:53 PM,71.1,66.9,87,30.09,10.0,Calm,Calm,-,N/A,,Overcast,0,2013-08-20 00:53:00
9:53 PM,71.1,66.9,87,30.11,10.0,South,3.5,-,N/A,,Overcast,180,2013-08-20 01:53:00
10:53 PM,70.0,66.9,90,30.12,10.0,Calm,Calm,-,N/A,,Overcast,0,2013-08-20 02:53:00
11:53 PM,69.1,66.9,93,30.12,10.0,Calm,Calm,-,N/A,,Overcast,0,2013-08-20 03:53:00